カタログに戻る

STARLINK-37233

運用中通信VLEO
NORAD 68562·PAYLOAD·🇺🇸 United States

打ち上げ Apr 2, 2026 から Cape Canaveral Space Force Station

Loading…

次のパス (今後24時間)

TLE

最新Source: CelesTrak SupGP

元期: Sep 14, 2026, 21:32 UTC

1 68562C 26070W   26257.89770833  .00015906  00000+0  46983-3 0  2579
2 68562  53.1583 199.6333 0001244  91.4488 163.5344 15.34391747    14

AllMySatでSTARLINK-37233をリアルタイム追跡

Download on the App Store